Flag for Micronesia Weather past 2 weeks in Colonia, Yap, Micronesia

Now
80 °F

Partly cloudy.


Feels Like: 85 °F
Forecast: 79 / 86 °F
Wind: No wind

Location: Yap Island

Current Time: Aug 22, 2014 at 7:02:15 AM

Latest Report: Aug 22, 2014 at 5:55 AM


Visibility: 12 mi

Pressure: 29.82 "Hg

Humidity: 91%

Dew point: 77 °F

Location of ColoniaLocation

Historic Weather in Colonia — Graph

°F

Colonia temperature yesterday

Maximum temperature yesterday: 87 °F (at 10:50 AM)
Minimum temperature yesterday: 77 °F (at 5:50 AM)
Average temperature yesterday: 81 °F

Past Weeks' High & Low Weather Summary

 TemperatureHumidityPressure
High88 °F (Aug 19, 12:50 PM)97% (Aug 8, 7:51 AM)29.92 "Hg (Aug 8, 7:51 AM)
Low75 °F (Aug 12, 10:50 PM)69% (Aug 17, 11:50 AM)29.72 "Hg (Aug 11, 4:50 PM)
Average81 °F85%29.83 "Hg
* Reported Aug 7 5:50 AM — Aug 22 5:55 AM, Colonia, Weather by CustomWeather, © 2014

Note: Actual official high and low records may vary slightly from our data, if they occured in-between our weather recording intervals... More about our weather records

Advertising

Colonia weather history for previous 24 hours

 ConditionsComfort  
Time TempWeatherWind HumidityBarometerVisibility
5:55 AM
Aug 22
80 °FPartly cloudy.No wind91%29.82 "Hg12 mi
4:50 AM79 °FPartly cloudy.No wind92%29.81 "Hg12 mi
3:50 AM79 °FPartly cloudy.No wind92%29.82 "Hg12 mi
2:50 AM78 °FPartly cloudy.No wind93%29.82 "Hg12 mi
1:50 AM80 °FPartly cloudy.No wind90%29.83 "Hg12 mi
12:53 AM78 °FMostly cloudy.No wind92%29.85 "Hg12 mi
11:51 PM
Aug 21
78 °FOvercast.No wind93%29.86 "Hg12 mi
10:50 PM78 °FOvercast.2 mph92%29.86 "Hg12 mi
9:50 PM79 °FOvercast.2 mph91%29.85 "Hg12 mi
8:50 PM78 °FMostly cloudy.No wind92%29.85 "Hg12 mi
7:50 PM79 °FMore clouds than sun.2 mph93%29.83 "Hg12 mi
6:50 PM80 °FMore clouds than sun.No wind92%29.81 "Hg12 mi
5:52 PM81 °FCloudy.No wind89%29.79 "Hg12 mi
4:50 PM81 °FMore clouds than sun.No wind86%29.78 "Hg12 mi
3:51 PM80 °FScattered showers. Cloudy.3 mph88%29.79 "Hg12 mi
2:52 PM85 °FScattered showers. Cloudy.5 mph78%29.80 "Hg12 mi
1:51 PM86 °FScattered showers. More clouds than sun.2 mph76%29.80 "Hg12 mi
12:50 PM85 °FScattered showers. Broken clouds.6 mph78%29.83 "Hg12 mi
11:50 AM87 °FScattered showers. Cloudy.6 mph73%29.85 "Hg12 mi
10:50 AM87 °FBroken clouds.3 mph74%29.85 "Hg12 mi
9:51 AM86 °FCloudy.6 mph75%29.85 "Hg12 mi
8:50 AM83 °FBroken clouds.6 mph86%29.83 "Hg12 mi
7:53 AM80 °FMore clouds than sun.3 mph92%29.84 "Hg12 mi
Weather by CustomWeather, © 2014

See weather overviewHow to use our weather pages